Tracking 31080 objects as of 20-Jul-2025
HD Live streaming from Space Station
objects crossing your sky now

STARLINK-1417

Track STARLINK-1417 now!
10-day predictions
STARLINK-1417 is classified as:


NORAD ID: 45693
Int'l Code: 2020-035AN
Perigee: 553.4 km
Apogee: 555.3 km
Inclination: 53.1 °
Period: 95.6 minutes
Semi major axis: 6925 km
RCS: Unknown
Launch date: June 4, 2020
Source: United States (US)
Launch site: AIR FORCE EASTERN TEST RANGE (AFETR)
Your satellite tracking list
Your tracking list is empty




NASA's NSSDC Master Catalog

Two Line Element Set (TLE):
1 45693U 20035AN  25200.80611862  .00000491  00000-0  51861-4 0  9997
2 45693  53.0562  22.0751 0001431  95.1320 264.9832 15.06397629283764
Source of the keplerian elements: AFSPC